[Date Prev][Date Next][Thread Prev][Thread Next] - [Date Index][Thread Index][Author Index]

2 Line ISS Keps 6-23



ISS
1 25544U 98067A   01174.49821204  .00046648  00000-0  50912-3 0  1241
2 25544  51.5722  56.7741 0016765 195.4651 226.1530 15.62711593148068


----
Via the sarex mailing list at AMSAT.ORG courtesy of AMSAT-NA.
To unsubscribe, send "unsubscribe sarex" to Majordomo@amsat.org



AMSAT Top AMSAT Home